Regional Weather Roundup
Issued by NWS

Home | Current Version | Previous Version | Graphics & Text | Print | Product List | Glossary On
Versions: 1 2 3 4 5 6 7 8 9 10 11 12 13 14 15 16 17 18 19 20 21 22 23 24 25 26 27 28 29 30 31 32 33 34 35 36 37 38 39 40 41 42 43 44 45 46 47 48
000
ASUS45 KBOU 250910
RWRCO

WEATHER ROUNDUP FOR COLORADO
NATIONAL WEATHER SERVICE PUEBLO CO
200 AM MST SUN FEB 25 2018

NOTE: "FAIR" INDICATES FEW OR NO CLOUDS BELOW 12000 FEET WITH NO
SIGNIFICANT WEATHER AND/OR OBSTRUCTIONS TO VISIBILITY.

COZ001>005-013-030-031-251000-
...NORTHWEST COLORADO...

CITY           SKY/WX    TMP DP  RH WIND       PRES   REMARKS
CRAIG          CLOUDY     8   4  83 CALM      29.92S
HAYDEN         FLURRIES  13  10  88 CALM      29.90F
MEEKER         CLOUDY    14   8  77 CALM      29.91R
RABBIT EARS PA NOT AVBL
STEAMBOAT SPGS CLOUDY    13  10  86 E7        29.87S WCI   3
WALDEN         FAIR      10   0  61 SW9       29.80S WCI  -2
$$

COZ006>008-011-251000-
...WEST CENTRAL VALLEYS...

CITY           SKY/WX    TMP DP  RH WIND       PRES   REMARKS
GRAND JUNCTION CLEAR     22  20  92 E5        29.96S WCI  16
MONTROSE       MOCLDY    23  17  78 S3        29.97S
EAGLE          PTCLDY    16  12  84 E7        29.92S WCI   6
RIFLE          PTCLDY    14   8  77 SE8       29.96R WCI   3
DELTA          NOT AVBL
NUCLA          FAIR      19  14  79 E7        30.00S WCI  10
$$

COZ017>023-064>068-251000-
...SOUTHWEST COLORADO...

CITY           SKY/WX    TMP DP  RH WIND       PRES   REMARKS
DURANGO        CLOUDY    22  14  71 NW3       29.92F
CORTEZ         CLOUDY    27  12  53 N5        29.96S WCI  22
PAGOSA SPRINGS CLOUDY    17  15  90 CALM      29.90F
TELLURIDE      LGT SNOW  14  10  85 W3        29.88S
WOLF CREEK PAS CLOUDY     1   0  92 S15G29    29.79S WCI -18
$$

COZ009-010-012-014-032>034-037-058>063-251000-
...CENTRAL COLORADO...

CITY           SKY/WX    TMP DP  RH WIND       PRES   REMARKS
ASPEN          LGT SNOW  13   9  84 CALM      29.85S FOG
BUENA VISTA    CLOUDY    17   8  65 SE7       29.82F WCI   8
COPPER MTN     LGT SNOW   3  -4  72 W9G17     29.67S WCI -11
BERTHOUD PASS  LGT SNOW  -6 -15  65 MISG      29.60S VSB 1
COTTONWOOD PAS CLOUDY    16  12  86 SE5       29.75F FOG     WCI   9
GUNNISON       LGT SNOW  16  13  88 SW7       29.87F FOG     WCI   6
KREMMLING      MOCLDY    18   9  68 N5        29.86S WCI  11
LEADVILLE      LGT SNOW   5   2  87 N7        29.74F FOG     WCI  -7
MONARCH PASS   CLOUDY     1  -4  78 SW25G32   29.78F WCI -22
SALIDA         CLOUDY    21  10  61 SW9       29.92F WCI  11
SUNLIGHT       LGT SNOW   3   0  85 SW7G16    29.80S VSB 1   WCI  -9
WILKERSON PASS PTCLDY     1  -2  85 SW13G24   29.71R WCI -16
$$

COZ069>075-251000-
...SAN LUIS VALLEY/SANGRE DE CRISTO MOUNTAINS...

CITY           SKY/WX    TMP DP  RH WIND       PRES   REMARKS
ALAMOSA        MOCLDY    18   6  59 SW12      29.85F WCI   5
DEL NORTE      FAIR      17   7  65 W9        29.85F WCI   5
LA VETA PASS   CLOUDY    10   5  79 S18G33    29.87F WCI  -8
SAGUACHE       NOT AVBL
$$

COZ035-036-038>040-251000-
...NORTHERN COLORADO FRONT RANGE...

CITY           SKY/WX    TMP DP  RH WIND       PRES   REMARKS
DENVER INTL AP PTCLDY    17   4  56 S10       29.81F WCI   5
DMNS CITY PARK NOT AVBL
AURORA         PTCLDY    16   4  58 S10       29.82F WCI   4
FRONT RANGE AP FAIR      20   8  60 S3        29.83S
ERIE MUNI ARPT FAIR      23   4  43 SW7       29.88F WCI  15
BOULDER MUN AP FAIR      28   5  37 W14G22    29.80S WCI  17
CENTENNIAL     PTCLDY    22   4  46 SW13      29.82S WCI  10
BROOMFIELD     NOT AVBL
LOVELAND       CLEAR     20   3  48 CALM      29.82F
LONGMONT       FAIR      29   4  34 SE7       29.84S WCI  22
$$

COZ041-046-047-076>085-087-088-251000-
...PIKES PEAK/PALMER DIVIDE AND SOUTHERN FOOTHILLS...

CITY           SKY/WX    TMP DP  RH WIND       PRES   REMARKS
COLO. SPRINGS  PTCLDY    20   4  50 CALM      29.86S
A. F. ACADEMY  CLEAR     19   0  43 S6        29.83S WCI  11
SCHRIEVER AFB  NOT AVBL
CHEYENNE MTN   NOT AVBL
ELLICOTT         N/A    N/A N/A N/A CALM      29.83F
FALCON         FAIR      15   1  55 CALM      29.84S
FORT CARSON    CLEAR     20   4  50 SW6       29.85F WCI  12
LIMON          PTCLDY    10   8  92 CALM      29.86F
MONUMENT HILL  CLEAR     19   0  42 SW13      29.81F WCI   7
CANON CITY     CLEAR     21   7  53 N5        29.87F WCI  15
WALSENBURG     NOT AVBL
TRINIDAD       CLEAR     31   4  31 W9        29.84R WCI  23
$$

COZ042>045-048>051-090-091-251000-
...NORTHEAST COLORADO...

CITY           SKY/WX    TMP DP  RH WIND       PRES   REMARKS
GREELEY ARPT   CLEAR     16  10  77 NE3       29.84F
AKRON          MOCLDY    20   9  62 SW14      29.84R WCI   7
BURLINGTON     PTCLDY    15   9  76 SW7       29.89F WCI   5
WRAY           FAIR      27  14  59 SW7       29.88F WCI  19
YUMA           NOT AVBL
STERLING       FAIR      28  10  47 W9        29.84F WCI  20
HOLYOKE        FAIR      32  16  51 SW12      29.86R WCI  23
FORT MORGAN    FAIR      19   7  59 W5        29.85F WCI  12
$$

COZ086-089-092>099-251000-
...SOUTHEAST COLORADO...

CITY           SKY/WX    TMP DP  RH WIND       PRES   REMARKS
PUEBLO         CLEAR     15   6  67 NW3       29.89F
LA JUNTA       MOCLDY    20   8  60 N5        29.92R WCI  13
LAMAR          CLEAR     11   3  70 W3        29.91S
SPRINGFIELD      N/A     13   5  70 N7        29.88R WCI   3
$$





USA.gov is the U.S. government's official web portal to all federal, state and local government web resources and services.